{"data":{"norad_id":55371,"epoch":"2026-05-24T18:40:16.562208Z","epoch_age_seconds":91447,"freshness":"FRESH","line1":"1 55371U 23013AS  26144.77796947 -.00000316  00000+0 -19489-5 0  9990","line2":"2 55371  43.0011 251.5030 0001248 275.3441  84.7268 15.27580821184028","mean_motion":15.27580821,"eccentricity":0.0001248,"inclination_deg":43.0011,"raan_deg":251.503,"arg_perigee_deg":275.3441,"mean_anomaly_deg":84.7268,"bstar":-1.9489e-6,"rev_number":18402,"period_min":94.266698049883,"perigee_km":482.19036195342,"apogee_km":483.90291338938,"semimajor_km":6861.1836376714,"source":"CELESTRAK","updated_at":"2026-05-25T13:38:17.768199Z"}}